[[{"header":{"parameterUnit":"m.s-1","parameterCategory":1,"la1":30.2991,"la2":30.254,"lo1":-89.0895,"lo2":-89.0444,"dy":0.0017,"dx":0.0017,"nx":28,"ny":28,"refTime":"2025-12-17T03:00:00:Z","depth":0,"parameterNumber":2,"parameterNumberName":"U-component_of_WINDS"},"data":[0,0,0,0,0,0,0,0,0,0,0,0,0,0,0,0,0,0,0,0,0,0,0,0,0,0,0,0,0,0,0,0,0,0,0,0,0,0,0,0,0,0,0,0,0,0,0,0,0,0,0,0,0,0,0,0,0,0,-1.7757,-1.7756,0,-1.7739,-1.7739,-1.7739,-1.77,-1.7699,-1.7699,-1.7698,-1.7681,-1.7682,-1.7682,0,0,0,0,0,0,0,0,0,0,0,0,0,-1.7757,-1.7757,-1.7757,-1.7756,-1.7756,-1.7739,-1.7739,-1.7739,-1.77,-1.7699,-1.7698,-1.7698,-1.7681,-1.7682,-1.7682,0,0,0,0,0,0,0,0,0,0,0,0,0,-1.775,-1.7758,-1.7757,-1.7735,-1.7733,-1.774,-1.7739,-1.7739,-1.7701,-1.7699,-1.7698,-1.7697,-1.7681,-1.7681,-1.7682,-1.7709,0,0,-1.7683,-1.7684,0,0,0,0,0,0,0,0,-1.7751,-1.775,-1.7738,-1.7736,-1.7734,-1.7721,-1.7733,-1.7729,-1.7701,-1.7713,-1.7698,-1.7696,-1.7695,-1.7695,-1.7694,-1.7708,-1.7707,-1.7683,-1.7684,-1.7684,-1.7684,0,0,0,0,0,0,0,-1.7751,-1.7751,-1.775,-1.7738,-1.7736,-1.7726,-1.7724,-1.7732,-1.7711,-1.7712,-1.7709,-1.7707,-1.7694,-1.7694,-1.7693,-1.7707,-1.7683,-1.7684,-1.7684,-1.7684,-1.7742,-1.7744,0,0,0,0,0,0,-1.7755,-1.7751,-1.775,-1.7749,-1.774,-1.7727,-1.7725,-1.7726,-1.7711,-1.7707,-1.7708,-1.7706,-1.7694,-1.7693,-1.7693,-1.7723,-1.7684,-1.7684,-1.7685,-1.7741,-1.7743,-1.7744,0,0,0,0,0,0,-1.7755,-1.7755,-1.7751,-1.775,-1.7748,-1.7729,-1.7731,-1.7727,-1.7726,-1.7708,-1.7704,-1.7712,-1.7693,-1.7692,-1.7705,-1.7722,-1.7684,-1.7685,-1.774,-1.7742,-1.7743,-1.7784,0,0,0,0,0,0,-1.7755,-1.7755,-1.7765,-1.775,-1.7749,-1.7763,-1.7732,-1.7727,-1.7727,-1.7723,-1.7711,-1.7707,-1.7692,-1.7705,-1.7706,-1.7722,-1.7685,-1.7738,-1.774,-1.7743,-1.7781,-1.7787,-1.7792,0,0,0,0,0,-1.7755,-1.7777,-1.7766,-1.7766,-1.776,-1.7764,-1.7764,-1.7745,-1.7728,-1.7738,-1.7727,-1.7708,-1.772,-1.7706,-1.7707,-1.7724,-1.7737,-1.774,-1.7743,-1.7778,-1.7786,-1.7792,0,0,0,0,0,0,-1.7795,-1.7775,-1.7762,-1.7779,-1.7774,-1.7758,-1.7769,-1.7753,-1.7752,-1.7749,-1.7726,-1.7723,-1.7739,-1.7733,-1.7718,-1.7749,-1.7725,-1.7729,-1.7752,-1.7759,-1.7765,-1.7765,-1.7686,0,0,0,0,0,-1.7805,-1.781,-1.7793,-1.781,-1.7808,-1.7789,-1.779,-1.7776,-1.777,-1.7767,-1.7757,-1.7752,-1.7754,-1.7756,-1.7758,-1.778,-1.7777,-1.7792,-1.7797,-1.7802,-1.7805,-1.7816,-1.7823,-1.7753,-1.7753,-1.7753,0,0,-1.7827,-1.7817,-1.7822,-1.7818,-1.7812,-1.7817,-1.7788,-1.7795,-1.7799,-1.7769,-1.778,-1.7772,-1.7765,-1.7783,-1.779,-1.7778,-1.7823,-1.7806,-1.781,-1.781,-1.782,-1.7826,-1.7832,-1.7755,-1.7755,-1.7755,0,0,-1.787,-1.7863,-1.7877,-1.7872,-1.7863,-1.7851,-1.7854,-1.7841,-1.7834,-1.7845,-1.7823,-1.7828,-1.7833,-1.7828,-1.7827,-1.787,-1.7852,-1.7871,-1.7899,-1.7911,-1.7916,-1.7921,-1.7936,-1.7941,-1.7874,-1.7874,-1.7874,0,-1.7899,-1.7906,-1.7886,-1.7895,-1.7894,-1.7867,-1.788,-1.7876,-1.7869,-1.7869,-1.7856,-1.7862,-1.7855,-1.7871,-1.7881,-1.7881,-1.7884,-1.7872,-1.7917,-1.7921,-1.7926,-1.7939,-1.7945,-1.7876,-1.7876,-1.7876,-1.7875,0,-1.7942,-1.7947,-1.796,-1.7953,-1.7953,-1.7964,-1.7946,-1.7949,-1.7936,-1.7925,-1.7937,-1.7928,-1.7927,-1.793,-1.7917,-1.7945,-1.7937,-1.7921,-1.7897,-1.7935,-1.7947,-1.7953,-1.7879,-1.7879,-1.7878,-1.7877,0,0,-1.8008,-1.799,-1.7995,-1.7992,-1.7981,-1.7985,-1.7995,-1.7994,-1.7997,-1.7993,-1.8001,-1.8007,-1.7991,-1.799,-1.7976,-1.7986,-1.802,-1.7968,-1.7968,-1.7978,-1.805,-1.8062,-1.8069,-1.8009,-1.801,-1.8011,-1.805,0,-1.8048,-1.8064,-1.8046,-1.8066,-1.8071,-1.8046,-1.8055,-1.805,-1.8041,-1.8044,-1.8033,-1.8037,-1.8017,-1.8016,-1.8025,-1.8014,-1.8034,-1.8011,-1.8016,-1.8017,-1.8018,-1.8075,-1.8088,-1.8126,-1.8055,-1.8056,-1.8057,0,-1.8096,-1.8095,-1.8115,-1.8103,-1.8104,-1.8113,-1.811,-1.8114,-1.8107,-1.81,-1.8099,-1.8082,-1.8092,-1.8069,-1.8082,-1.8067,-1.8068,-1.8064,-1.8065,-1.8064,-1.8038,-1.8075,-1.8138,-1.8143,-1.8064,-1.8064,-1.8063,0,-1.8142,-1.8145,-1.8157,-1.8155,-1.8142,-1.8148,-1.8143,-1.8135,-1.8136,-1.8134,-1.8135,-1.8135,-1.8134,-1.8135,-1.8119,-1.8104,-1.8134,-1.811,-1.8128,-1.8129,-1.8135,-1.8135,-1.8198,-1.8137,-1.8137,-1.8137,-1.8137,0,-1.8188,-1.8202,-1.8178,-1.8185,-1.82,-1.818,-1.8195,-1.8187,-1.8181,-1.8187,-1.8166,-1.8172,-1.8151,-1.8155,-1.8143,-1.8155,-1.8156,-1.815,-1.8146,-1.8151,-1.8152,-1.8151,-1.8148,-1.8139,-1.8138,-1.8138,-1.8138,0,-1.8241,-1.8226,-1.8238,-1.8224,-1.8221,-1.8232,-1.8221,-1.8227,-1.8217,-1.8225,-1.8226,-1.8209,-1.8213,-1.8197,-1.8199,-1.8191,-1.821,-1.8202,-1.8212,-1.8209,-1.8228,-1.8226,-1.8292,-1.83,-1.8235,-1.8236,-1.8236,0,-1.8271,-1.8281,-1.8268,-1.8271,-1.8266,-1.8271,-1.8271,-1.8252,-1.8254,-1.8248,-1.8255,-1.8257,-1.8258,-1.8265,-1.8254,-1.8255,-1.8246,-1.827,-1.8246,-1.8251,-1.8246,-1.8246,-1.8246,-1.8274,-1.8275,-1.8276,-1.8276,0,-1.8326,-1.8318,-1.832,-1.8319,-1.832,-1.8318,-1.8315,-1.8318,-1.8298,-1.8301,-1.8305,-1.8305,-1.8306,-1.8309,-1.8307,-1.8302,-1.8286,-1.8284,-1.8288,-1.8293,-1.8298,-1.8295,-1.8224,-1.8282,-1.8281,-1.8281,-1.8281,-1.828,-1.8368,-1.8376,-1.8368,-1.837,-1.8366,-1.8364,-1.837,-1.836,-1.8362,-1.8361,-1.8351,-1.8356,-1.835,-1.8347,-1.8343,-1.8348,-1.8337,-1.8343,-1.8345,-1.8346,-1.8349,-1.8298,-1.8348,-1.8347,-1.8347,-1.8347,-1.8347,0,-1.8422,-1.8416,-1.8418,-1.8414,-1.8416,-1.8401,-1.8397,-1.84,-1.8405,-1.84,-1.8401,-1.8406,-1.8408,-1.8397,-1.8398,-1.8403,-1.8396,-1.8404,-1.8403,-1.8402,-1.8359,-1.8355,-1.841,-1.841,-1.841,-1.841,-1.841,-1.841,-1.845,-1.8461,-1.8453,-1.8462,-1.8456,-1.8461,-1.846,-1.8458,-1.8454,-1.846,-1.8462,-1.8454,-1.8447,-1.8448,-1.8449,-1.8446,-1.8447,-1.8458,-1.8452,-1.8412,-1.8405,-1.84,-1.8396,-1.8458,-1.8459,-1.8495,-1.8495,-1.8496]},{"header":{"parameterUnit":"m.s-1","parameterCategory":1,"la1":30.2991,"la2":30.254,"lo1":-89.0895,"lo2":-89.0444,"dy":0.0017,"dx":0.0017,"nx":28,"ny":28,"refTime":"2025-12-17T03:00:00:Z","depth":0,"parameterNumber":3,"parameterNumberName":"V-component_of_WINDS"},"data":[0,0,0,0,0,0,0,0,0,0,0,0,0,0,0,0,0,0,0,0,0,0,0,0,0,0,0,0,0,0,0,0,0,0,0,0,0,0,0,0,0,0,0,0,0,0,0,0,0,0,0,0,0,0,0,0,0,0,2.8403,2.8403,0,2.8381,2.8381,2.8381,2.8345,2.8344,2.8344,2.8343,2.832,2.832,2.832,0,0,0,0,0,0,0,0,0,0,0,0,0,2.8414,2.8414,2.8403,2.8403,2.8403,2.8381,2.8381,2.8381,2.8345,2.8344,2.8343,2.8343,2.832,2.832,2.832,0,0,0,0,0,0,0,0,0,0,0,0,0,2.8402,2.8414,2.8403,2.8382,2.838,2.8381,2.8381,2.8381,2.8345,2.8344,2.8343,2.8342,2.832,2.832,2.832,2.834,0,0,2.832,2.832,0,0,0,0,0,0,0,0,2.8403,2.8402,2.8386,2.8384,2.8381,2.8365,2.8376,2.8367,2.8345,2.8358,2.8343,2.8342,2.8336,2.8334,2.8332,2.8338,2.8337,2.832,2.832,2.832,2.832,0,0,0,0,0,0,0,2.8404,2.8403,2.8394,2.8385,2.8383,2.8374,2.8371,2.8374,2.8353,2.8357,2.8355,2.8353,2.8334,2.8332,2.8331,2.8337,2.832,2.832,2.832,2.832,2.836,2.8361,0,0,0,0,0,0,2.8408,2.8404,2.8395,2.8394,2.839,2.8375,2.8371,2.8371,2.8353,2.8349,2.8353,2.8351,2.8333,2.8332,2.8331,2.8354,2.832,2.832,2.832,2.8359,2.836,2.8361,0,0,0,0,0,0,2.8408,2.8407,2.8396,2.8398,2.8396,2.8375,2.8375,2.8371,2.8369,2.835,2.8346,2.8356,2.8332,2.8331,2.8338,2.8352,2.832,2.832,2.8357,2.8359,2.8361,2.8399,0,0,0,0,0,0,2.8409,2.8408,2.8415,2.8398,2.8396,2.8404,2.8376,2.8372,2.837,2.8366,2.8351,2.8347,2.8331,2.8338,2.8338,2.8352,2.832,2.8356,2.8358,2.836,2.8397,2.8402,2.8406,0,0,0,0,0,2.8409,2.8426,2.8416,2.8415,2.8405,2.8405,2.8403,2.8385,2.8371,2.8378,2.8366,2.8348,2.835,2.8339,2.8339,2.8353,2.8355,2.8358,2.836,2.8394,2.8401,2.8406,0,0,0,0,0,0,2.8445,2.8424,2.8412,2.8424,2.8417,2.8399,2.8408,2.8392,2.8388,2.8385,2.8362,2.8359,2.837,2.8361,2.8349,2.8371,2.835,2.8352,2.8376,2.8382,2.8387,2.839,2.832,0,0,0,0,0,2.8454,2.8456,2.8438,2.845,2.8447,2.8428,2.8427,2.8414,2.8405,2.8402,2.839,2.8382,2.8381,2.8381,2.8379,2.8395,2.8392,2.8404,2.8409,2.8413,2.8416,2.8425,2.8431,2.8369,2.8369,2.8369,0,0,2.8473,2.8462,2.8465,2.8457,2.845,2.8453,2.8426,2.843,2.8432,2.8402,2.8409,2.84,2.839,2.8402,2.8406,2.8395,2.8432,2.8416,2.842,2.842,2.8428,2.8434,2.8439,2.8371,2.837,2.837,0,0,2.8511,2.8502,2.8512,2.8505,2.8495,2.8482,2.8485,2.8469,2.8462,2.8469,2.8447,2.8449,2.8448,2.8442,2.8439,2.8474,2.8458,2.8474,2.85,2.8509,2.8514,2.8518,2.8533,2.8538,2.8476,2.8476,2.8476,0,2.8536,2.854,2.8519,2.8525,2.8523,2.8496,2.8507,2.8501,2.8491,2.849,2.8477,2.8476,2.8467,2.8478,2.8487,2.8485,2.8487,2.8476,2.8515,2.8519,2.8523,2.8536,2.8541,2.8479,2.8478,2.8478,2.8478,0,2.8572,2.8575,2.8585,2.8576,2.8574,2.8582,2.8563,2.8564,2.8551,2.8539,2.8547,2.8535,2.8531,2.8532,2.8519,2.8542,2.8535,2.8519,2.8498,2.8531,2.8543,2.8548,2.8482,2.8481,2.848,2.848,0,0,2.8632,2.8612,2.8616,2.8612,2.8598,2.86,2.8607,2.8603,2.8605,2.8599,2.8605,2.8605,2.859,2.8586,2.8572,2.858,2.861,2.8563,2.8562,2.8573,2.8637,2.865,2.8656,2.8599,2.86,2.8601,2.8638,0,2.8667,2.8679,2.8661,2.8676,2.8679,2.8654,2.8661,2.8653,2.8643,2.8644,2.8632,2.8633,2.8613,2.8611,2.8617,2.8605,2.8623,2.8602,2.8605,2.8606,2.861,2.8662,2.8676,2.8712,2.8642,2.8643,2.8644,0,2.871,2.8707,2.8723,2.8709,2.871,2.8716,2.8712,2.8712,2.8704,2.8696,2.8692,2.8675,2.8682,2.866,2.8669,2.8655,2.8655,2.865,2.865,2.8651,2.8628,2.8666,2.8723,2.8729,2.8651,2.865,2.865,0,2.8754,2.8753,2.8763,2.876,2.8744,2.8749,2.8743,2.8733,2.8732,2.8728,2.8728,2.8724,2.8723,2.8721,2.8704,2.8689,2.8715,2.8692,2.8709,2.871,2.8717,2.8717,2.8777,2.8715,2.8715,2.8715,2.8714,0,2.8797,2.8808,2.8783,2.8789,2.8801,2.878,2.8792,2.8783,2.8775,2.8779,2.8757,2.8761,2.8738,2.874,2.8726,2.8737,2.8736,2.873,2.8726,2.8733,2.8734,2.8734,2.8731,2.8716,2.8716,2.8715,2.8715,0,2.8849,2.8832,2.8841,2.8825,2.8822,2.8831,2.8818,2.8823,2.8811,2.8817,2.8817,2.8798,2.88,2.8782,2.878,2.8771,2.8788,2.8779,2.8791,2.8789,2.8809,2.8808,2.8871,2.8879,2.8811,2.8811,2.8812,0,2.8878,2.8886,2.8871,2.8872,2.8867,2.8869,2.8869,2.8848,2.8848,2.8839,2.8846,2.8846,2.8844,2.8848,2.8834,2.8833,2.8825,2.8847,2.8824,2.8831,2.8827,2.8828,2.8829,2.8852,2.8853,2.8854,2.8854,0,2.8932,2.8923,2.8923,2.892,2.892,2.8917,2.8912,2.8915,2.8892,2.8894,2.8895,2.8894,2.8892,2.8893,2.8888,2.8882,2.8865,2.8861,2.8866,2.8873,2.8881,2.8879,2.8806,2.886,2.886,2.8859,2.8859,2.8859,2.8974,2.8981,2.8971,2.8972,2.8967,2.8963,2.8968,2.8956,2.8957,2.8954,2.8942,2.8946,2.8937,2.893,2.8925,2.8928,2.8917,2.8923,2.8925,2.8927,2.8931,2.8879,2.8927,2.8927,2.8926,2.8926,2.8926,0,2.9028,2.9021,2.9022,2.9017,2.9017,2.9001,2.8995,2.8997,2.9001,2.8994,2.8994,2.8996,2.8996,2.8982,2.8981,2.8986,2.8979,2.8987,2.8987,2.8986,2.894,2.8937,2.8993,2.8993,2.8993,2.8993,2.8993,2.8993,2.9057,2.9068,2.9058,2.9066,2.9058,2.9062,2.906,2.9057,2.9052,2.9055,2.9056,2.9047,2.9038,2.9036,2.9035,2.9031,2.9033,2.9044,2.9038,2.8996,2.8989,2.8983,2.898,2.9044,2.9044,2.9083,2.9084,2.9084]}]]